Benton Harbor, MI

3:24 PM EDT on July 28, 2017 (GMT -0400)
Southwest Michigan Regional

Weather History for KBEH - September, 2013

Change the Weather History Date:

Tuesday, September 3, 2013

  Actual Average Record
Temperature  
Mean Temperature 62 °F -  
Max Temperature 70 °F 79 °F 94 °F (1953)
Min Temperature 54 °F 56 °F 40 °F (1974)
Degree Days  
Heating Degree Days 3    
Growing Degree Days 12 (Base 50)    
Moisture  
Dew Point 55 °F    
Average Humidity 78    
Maximum Humidity 100    
Minimum Humidity 60    
Precipitation  
Precipitation 0.00 in - - ()
Sea Level Pressure  
Sea Level Pressure 30.04 in    
Wind  
Wind Speed 2 mph (NW)    
Max Wind Speed 9 mph    
Max Gust Speed -    
Visibility 9 miles    
Events      
Averages and records for this station are not official NWS values.
T = Trace of Precipitation, MM = Missing Value Source: NWS Daily Summary

Daily Weather History Graph

Daily Weather History Graph

Search for Another Location

Airport or City:

Trip Planner

Search our weather history database for the weather conditions in past years. The results will help you decide how hot, cold, wet, or windy it might be!

Date:

Astronomy

Sep. 03, 2013 Rise Set
Actual Time 7:13 AM EDT 8:15 PM EDT
Civil Twilight 6:44 AM EDT 8:44 PM EDT
Nautical Twilight 6:10 AM EDT 9:18 PM EDT
Astronomical Twilight 5:34 AM EDT 9:53 PM EDT
Moon 5:25 AM EDT (9/3) 7:02 PM EDT (9/3)
Length of Visible Light 13h 59m
Length of Day
13h 02m
Waning Crescent, 3% of the Moon is Illuminated
Sep 3
Waning Crescent
Sep 5
New
Sep 12
First Quarter
Sep 19
Full
Sep 26
Last Quarter

Hourly Weather History & Observations

Time (EDT) Temp. Dew Point Humidity Pressure Visibility Wind Dir Wind Speed Gust Speed Precip Events Conditions
12:53 AM 55.9 °F 54.0 °F 93% 29.99 in 10.0 mi Calm Calm - N/A   Overcast
1:53 AM 57.0 °F 54.0 °F 89% 29.98 in 10.0 mi Calm Calm - N/A   Overcast
2:53 AM 54.0 °F 53.1 °F 97% 29.98 in 10.0 mi Calm Calm - N/A   Mostly Cloudy
3:53 AM 54.0 °F 53.1 °F 97% 29.98 in 10.0 mi Calm Calm - N/A   Mostly Cloudy
4:53 AM 55.9 °F 55.0 °F 97% 29.99 in 10.0 mi Calm Calm - N/A   Overcast
5:53 AM 57.0 °F 55.0 °F 93% 30.01 in 10.0 mi Calm Calm - N/A   Overcast
6:53 AM 57.9 °F 55.0 °F 90% 30.03 in 10.0 mi Calm Calm - N/A   Overcast
7:53 AM 57.9 °F 55.0 °F 90% 30.04 in 10.0 mi Calm Calm - N/A   Overcast
8:53 AM 61.0 °F 54.0 °F 78% 30.05 in 10.0 mi ENE 3.5 mph - N/A   Overcast
9:53 AM 64.0 °F 52.0 °F 65% 30.06 in 10.0 mi NNE 5.8 mph - N/A   Scattered Clouds
10:46 AM 66.2 °F 53.6 °F 64% 30.07 in 2.5 mi Calm Calm - N/A   Haze
10:53 AM 66.9 °F 54.0 °F 63% 30.07 in 10.0 mi Calm Calm - N/A   Clear
11:53 AM 68.0 °F 54.0 °F 61% 30.08 in 2.0 mi Variable 5.8 mph - N/A   Haze
12:06 PM 68.0 °F 53.6 °F 60% 30.08 in 10.0 mi Variable 6.9 mph - N/A   Clear
12:53 PM 66.9 °F 54.0 °F 63% 30.08 in 10.0 mi North 5.8 mph - N/A   Clear
1:53 PM 69.1 °F 55.9 °F 63% 30.07 in 10.0 mi North 4.6 mph - N/A   Clear
2:53 PM 70.0 °F 57.0 °F 63% 30.07 in 10.0 mi Variable 5.8 mph - N/A   Partly Cloudy
3:53 PM 70.0 °F 57.0 °F 63% 30.06 in 10.0 mi WSW 9.2 mph - N/A   Mostly Cloudy
4:07 PM 68.0 °F 57.2 °F 68% 30.05 in 10.0 mi WNW 5.8 mph - N/A   Scattered Clouds
4:30 PM 69.8 °F 57.2 °F 64% 30.05 in 10.0 mi Variable 6.9 mph - N/A   Mostly Cloudy
4:53 PM 68.0 °F 57.0 °F 68% 30.04 in 10.0 mi Variable 3.5 mph - N/A   Mostly Cloudy
5:11 PM 69.8 °F 57.2 °F 64% 30.04 in 10.0 mi West 4.6 mph - N/A   Scattered Clouds
5:18 PM 68.0 °F 57.2 °F 68% 30.04 in 10.0 mi West 5.8 mph - N/A   Mostly Cloudy
5:25 PM 69.8 °F 57.2 °F 64% 30.04 in 10.0 mi West 6.9 mph - N/A   Scattered Clouds
5:53 PM 68.0 °F 57.9 °F 70% 30.05 in 10.0 mi West 6.9 mph - N/A   Clear
6:53 PM 66.9 °F 57.9 °F 73% 30.05 in 10.0 mi Calm Calm - N/A   Clear
7:53 PM 63.0 °F 57.9 °F 84% 30.03 in 10.0 mi Calm Calm - N/A   Clear
8:53 PM 59.0 °F 57.9 °F 96% 30.04 in 10.0 mi Calm Calm - N/A   Clear
9:53 PM 55.9 °F 55.9 °F 100% 30.04 in 10.0 mi Calm Calm - N/A   Clear
10:53 PM 55.0 °F 55.0 °F 100% 30.05 in 9.0 mi Calm Calm - N/A   Clear
11:53 PM 54.0 °F 54.0 °F 100% 30.05 in 9.0 mi Calm Calm - N/A   Clear